This is the latest recevied weather packets stored in our database for station/object KG7BDA. If no packets are shown the sender has not sent any weather packets the latest 10 day(s).
| Time | Temp. | Humidity | Pressure | Rain* | Wind** | Luminosity | Snow |
|---|---|---|---|---|---|---|---|
| 1777840794 | 23.33° C | 35% | 1013.1 hPa | 0 mm | - | - | - |
| 1777840756 | 23.33° C | 35% | 1013.1 hPa | 0 mm | - | - | - |
| 1777840397 | 23.33° C | 31% | 1013.2 hPa | 0 mm | - | - | - |
| 1777840036 | 22.78° C | 32% | 1013.2 hPa | 0 mm | - | - | - |
| 1777839717 | 22.78° C | 32% | 1013.2 hPa | 0 mm | - | - | - |
| 1777839676 | 22.78° C | 32% | 1013.2 hPa | 0 mm | - | - | - |
| 1777839316 | 22.78° C | 32% | 1013.2 hPa | 0 mm | - | - | - |
| 1777838955 | 22.78° C | 35% | 1013.3 hPa | 0 mm | - | - | - |
| 1777838596 | 22.22° C | 33% | 1013.3 hPa | 0 mm | - | - | - |
| 1777838236 | 22.22° C | 33% | 1013.5 hPa | 0 mm | - | - | - |
| 1777837876 | 22.22° C | 32% | 1013.5 hPa | 0 mm | - | - | - |
| 1777837516 | 22.22° C | 34% | 1013.5 hPa | 0 mm | - | - | - |
| 1777837156 | 22.22° C | 36% | 1013.7 hPa | 0 mm | - | - | - |
| 1777836796 | 22.22° C | 36% | 1013.8 hPa | 0 mm | - | - | - |
| 1777836436 | 22.22° C | 35% | 1013.9 hPa | 0 mm | - | - | - |
| 1777835748 | 22.22° C | 36% | 1014.2 hPa | 0 mm | - | - | - |
| 1777835716 | 22.22° C | 36% | 1014.2 hPa | 0 mm | - | - | - |
| 1777835357 | 21.67° C | 35% | 1014.2 hPa | 0 mm | - | - | - |
| 1777835028 | 21.67° C | 40% | 1014.1 hPa | 0 mm | - | - | - |
| 1777834996 | 21.67° C | 40% | 1014.1 hPa | 0 mm | - | - | - |
| 1777834636 | 21.67° C | 36% | 1014.2 hPa | 0 mm | - | - | - |
| 1777834276 | 21.67° C | 38% | 1014.3 hPa | 0 mm | - | - | - |
| 1777833916 | 21.11° C | 37% | 1014.3 hPa | 0 mm | - | - | - |
| 1777833555 | 21.11° C | 35% | 1014.4 hPa | 0 mm | - | - | - |
| 1777833195 | 21.11° C | 37% | 1014.4 hPa | 0 mm | - | - | - |
* Rain latest hour (hover to see other rain measurements)
** Current wind speed in m/s (hover to see current wind gust speed)